• En España
  • Lista de países
  • Para 7 días
  • Temperatura del agua
  • Mapa Satelital
  • El tiempo en el mapa
  • Informadores
  • user-avatar
    Iniciar sesión

    Tiempo cada hora Zashizheme

    Hoy, 22 Junio, Viernes

    Tiempo Temperatura Precipitaciones Viento Presión Humedad
    00:00 +12°C° 0 mm 5 mps 737 mmHg 79%
    01:00 +12°C° 0 mm 5 mps 738 mmHg 78%
    02:00 +12°C° 0 mm 5 mps 738 mmHg 78%
    03:00 +10°C° 0 mm 5 mps 739 mmHg 78%
    04:00 +11°C° 0 mm 6 mps 739 mmHg 77%
    05:00 +11°C° 0 mm 6 mps 740 mmHg 76%
    06:00 +13°C° 0 mm 6 mps 740 mmHg 75%
    07:00 +14°C° 0 mm 6 mps 741 mmHg 70%
    08:00 +16°C° 0 mm 6 mps 741 mmHg 65%
    09:00 +17°C° 0 mm 7 mps 741 mmHg 60%
    10:00 +19°C° 0 mm 6 mps 742 mmHg 58%
    11:00 +20°C° 0 mm 6 mps 742 mmHg 55%
    12:00 +21°C° 0 mm 6 mps 742 mmHg 53%
    13:00 +21°C° 0 mm 6 mps 742 mmHg 53%
    14:00 +22°C° 0 mm 6 mps 742 mmHg 52%
    15:00 +22°C° 0 mm 5 mps 742 mmHg 52%
    16:00 +22°C° 0 mm 4 mps 742 mmHg 57%
    17:00 +22°C° 0 mm 3 mps 742 mmHg 61%
    18:00 +21°C° 0 mm 3 mps 743 mmHg 65%
    19:00 +19°C° 0 mm 2 mps 743 mmHg 70%
    20:00 +18°C° 0 mm 2 mps 743 mmHg 75%
    21:00 +16°C° 0 mm 2 mps 743 mmHg 80%
    22:00 +15°C° 0 mm 2 mps 743 mmHg 80%
    23:00 +15°C° 0 mm 1 mps 743 mmHg 81%

    Mañana, 23 Junio, Sábado

    Tiempo Temperatura Precipitaciones Viento Presión Humedad
    00:00 +14°C° 0 mm 1 mps 743 mmHg 82%
    01:00 +14°C° 0 mm 1 mps 743 mmHg 83%
    02:00 +14°C° 0 mm 1 mps 744 mmHg 84%
    03:00 +14°C° 0 mm 1 mps 744 mmHg 85%
    04:00 +15°C° 0 mm 1 mps 744 mmHg 83%
    05:00 +18°C° 0 mm 1 mps 744 mmHg 81%
    06:00 +18°C° 0 mm 2 mps 744 mmHg 80%
    07:00 +20°C° 0 mm 2 mps 744 mmHg 76%
    08:00 +23°C° 0 mm 2 mps 744 mmHg 72%
    09:00 +25°C° 0 mm 2 mps 744 mmHg 67%
    10:00 +26°C° 0,3 mm 2 mps 744 mmHg 66%
    11:00 +27°C° 0,3 mm 3 mps 744 mmHg 65%
    12:00 +27°C° 0,3 mm 3 mps 744 mmHg 64%
    13:00 +27°C° 0,5 mm 3 mps 744 mmHg 64%
    14:00 +28°C° 0,5 mm 3 mps 744 mmHg 65%
    15:00 +28°C° 0,5 mm 3 mps 744 mmHg 66%
    16:00 +27°C° 0,6 mm 2 mps 743 mmHg 70%
    17:00 +27°C° 0,6 mm 2 mps 743 mmHg 75%
    18:00 +26°C° 0,6 mm 1 mps 743 mmHg 80%
    19:00 +25°C° 0,1 mm 1 mps 743 mmHg 83%
    20:00 +23°C° 0,1 mm 1 mps 743 mmHg 85%
    21:00 +22°C° 0,1 mm 1 mps 744 mmHg 88%
    22:00 +21°C° 0,1 mm 1 mps 744 mmHg 89%
    23:00 +21°C° 0,1 mm 1 mps 744 mmHg 90%

    Pasado mañana, 24 Junio, Domingo

    Tiempo Temperatura Precipitaciones Viento Presión Humedad
    00:00 +21°C° 0,1 mm 1 mps 744 mmHg 91%
    01:00 +20°C° 0 mm 1 mps 744 mmHg 92%
    02:00 +20°C° 0 mm 1 mps 744 mmHg 92%
    03:00 +20°C° 0 mm 1 mps 745 mmHg 93%
    04:00 +21°C° 0 mm 1 mps 745 mmHg 91%
    05:00 +22°C° 0 mm 1 mps 745 mmHg 88%
    06:00 +21°C° 0 mm 0 mps 745 mmHg 86%
    07:00 +23°C° 0,1 mm 0 mps 745 mmHg 81%
    08:00 +24°C° 0,1 mm 0 mps 745 mmHg 76%
    09:00 +26°C° 0,1 mm 0 mps 745 mmHg 71%
    10:00 +29°C° 0,5 mm 1 mps 745 mmHg 68%
    11:00 +29°C° 0,5 mm 1 mps 745 mmHg 64%
    12:00 +30°C° 0,5 mm 1 mps 745 mmHg 60%
    13:00 +30°C° 0,7 mm 1 mps 745 mmHg 60%
    14:00 +28°C° 0,7 mm 0 mps 745 mmHg 60%
    15:00 +28°C° 0,7 mm 0 mps 745 mmHg 60%
    16:00 +28°C° 0,2 mm 0 mps 745 mmHg 64%
    17:00 +29°C° 0,2 mm 1 mps 745 mmHg 68%
    18:00 +29°C° 0,2 mm 1 mps 745 mmHg 71%
    19:00 +27°C° 0 mm 1 mps 746 mmHg 76%
    20:00 +25°C° 0 mm 1 mps 746 mmHg 81%
    21:00 +24°C° 0 mm 1 mps 746 mmHg 85%
    22:00 +23°C° 0 mm 1 mps 746 mmHg 86%
    23:00 +22°C° 0 mm 1 mps 746 mmHg 88%

    25 Junio, Lunes

    Tiempo Temperatura Precipitaciones Viento Presión Humedad
    00:00 +22°C° 0 mm 1 mps 746 mmHg 89%
    01:00 +21°C° 0 mm 1 mps 746 mmHg 89%
    02:00 +21°C° 0 mm 1 mps 746 mmHg 89%
    03:00 +21°C° 0 mm 1 mps 746 mmHg 90%
    04:00 +22°C° 0 mm 1 mps 747 mmHg 87%
    05:00 +23°C° 0 mm 1 mps 747 mmHg 84%
    06:00 +24°C° 0 mm 1 mps 747 mmHg 81%
    07:00 +25°C° 0 mm 1 mps 747 mmHg 76%
    08:00 +27°C° 0 mm 2 mps 747 mmHg 71%
    09:00 +28°C° 0 mm 2 mps 747 mmHg 65%
    10:00 +29°C° 0 mm 2 mps 747 mmHg 61%
    11:00 +30°C° 0 mm 2 mps 747 mmHg 57%
    12:00 +30°C° 0 mm 2 mps 747 mmHg 53%
    13:00 +30°C° 0 mm 2 mps 747 mmHg 54%
    14:00 +30°C° 0 mm 2 mps 747 mmHg 54%
    15:00 +30°C° 0 mm 2 mps 747 mmHg 55%
    16:00 +30°C° 0 mm 2 mps 747 mmHg 59%
    17:00 +30°C° 0 mm 1 mps 747 mmHg 62%
    18:00 +29°C° 0 mm 1 mps 747 mmHg 65%
    19:00 +27°C° 0 mm 1 mps 747 mmHg 69%
    20:00 +26°C° 0 mm 1 mps 747 mmHg 72%
    21:00 +24°C° 0 mm 1 mps 747 mmHg 75%
    22:00 +23°C° 0 mm 1 mps 747 mmHg 77%
    23:00 +21°C° 0 mm 2 mps 747 mmHg 79%

    26 Junio, Martes

    Tiempo Temperatura Precipitaciones Viento Presión Humedad
    00:00 +21°C° 0 mm 2 mps 747 mmHg 82%
    01:00 +20°C° 0,1 mm 2 mps 747 mmHg 84%
    02:00 +20°C° 0,1 mm 2 mps 747 mmHg 86%
    03:00 +19°C° 0,1 mm 2 mps 747 mmHg 88%
    04:00 +20°C° 0 mm 2 mps 747 mmHg 86%
    05:00 +21°C° 0 mm 2 mps 747 mmHg 84%
    06:00 +23°C° 0 mm 2 mps 747 mmHg 83%
    07:00 +24°C° 0 mm 3 mps 748 mmHg 78%
    08:00 +25°C° 0 mm 3 mps 748 mmHg 73%
    09:00 +26°C° 0 mm 3 mps 748 mmHg 69%
    10:00 +27°C° 0 mm 3 mps 748 mmHg 66%
    11:00 +28°C° 0 mm 3 mps 747 mmHg 62%
    12:00 +28°C° 0 mm 3 mps 747 mmHg 59%
    13:00 +28°C° 0,1 mm 3 mps 748 mmHg 60%
    14:00 +28°C° 0,1 mm 3 mps 748 mmHg 61%
    15:00 +28°C° 0,1 mm 3 mps 748 mmHg 62%
    16:00 +28°C° 0,1 mm 3 mps 748 mmHg 66%
    17:00 +27°C° 0,1 mm 3 mps 748 mmHg 70%
    18:00 +27°C° 0,1 mm 2 mps 748 mmHg 74%
    19:00 +25°C° 0 mm 2 mps 748 mmHg 79%
    20:00 +23°C° 0 mm 2 mps 748 mmHg 84%
    21:00 +21°C° 0 mm 2 mps 748 mmHg 89%
    22:00 +20°C° 0 mm 2 mps 748 mmHg 90%
    23:00 +20°C° 0 mm 2 mps 748 mmHg 92%

    27 Junio, Miércoles

    Tiempo Temperatura Precipitaciones Viento Presión Humedad
    00:00 +19°C° 0 mm 2 mps 748 mmHg 93%
    01:00 +18°C° 0 mm 2 mps 748 mmHg 94%
    02:00 +18°C° 0 mm 3 mps 748 mmHg 95%
    03:00 +18°C° 0 mm 3 mps 748 mmHg 96%
    04:00 +19°C° 0 mm 3 mps 749 mmHg 93%
    05:00 +20°C° 0 mm 3 mps 749 mmHg 91%
    06:00 +21°C° 0 mm 3 mps 749 mmHg 88%
    07:00 +22°C° 0 mm 3 mps 749 mmHg 84%
    08:00 +24°C° 0 mm 3 mps 749 mmHg 79%
    09:00 +26°C° 0 mm 3 mps 749 mmHg 74%
    10:00 +27°C° 0,8 mm 3 mps 749 mmHg 71%
    11:00 +27°C° 0,8 mm 3 mps 749 mmHg 68%
    12:00 +28°C° 0,8 mm 4 mps 748 mmHg 66%
    13:00 +28°C° 0,2 mm 4 mps 748 mmHg 64%
    14:00 +29°C° 0,2 mm 4 mps 748 mmHg 63%
    15:00 +29°C° 0,2 mm 4 mps 748 mmHg 62%
    16:00 +28°C° 0,1 mm 3 mps 748 mmHg 66%
    17:00 +28°C° 0,1 mm 3 mps 748 mmHg 69%
    18:00 +27°C° 0,1 mm 3 mps 748 mmHg 73%
    19:00 +26°C° 0 mm 3 mps 748 mmHg 78%
    20:00 +24°C° 0 mm 2 mps 748 mmHg 83%
    21:00 +23°C° 0 mm 2 mps 748 mmHg 88%
    22:00 +21°C° 0 mm 2 mps 748 mmHg 89%
    23:00 +20°C° 0 mm 2 mps 748 mmHg 90%
    Mostrar más